Location: Newark
(13.0494°N, 109.3336°E)
Time: 01:06:13
(UTC+00:00)

Hubble Space Telescope - Visible Passes

Search period start: 22 January 2021 00:00
Search period end: 01 February 2021 00:00
Orbit: 536 x 539 km, 28.5° (Epoch: 21 January)

Date Brightness Start Highest point End Pass type
(mag) Time Alt. Az. Time Alt. Az. Time Alt. Az.
25 Jan 3.3 12:31:56 10° NW 12:32:31 13° NNW 12:32:31 13° NNW visible
26 Jan 2.6 12:20:55 10° NW 12:22:40 21° NNW 12:22:40 21° NNW visible
27 Jan 1.7 12:09:56 10° NW 12:12:56 35° N 12:12:56 35° N visible
28 Jan 0.8 11:59:00 10° NW 12:03:02 54° NNE 12:03:21 52° NE visible
29 Jan 0.6 11:48:06 10° WNW 11:52:14 74° NNE 11:53:52 35° ESE visible
30 Jan 0.8 11:37:16 10° WNW 11:41:24 80° SSW 11:44:32 17° ESE visible
31 Jan 1.4 11:26:31 10° WNW 11:30:34 57° SSW 11:34:36 10° SE visible
